Select Weather Forecast Office:  

NWS Baltimore, MD/Washington, DC/Sterling, VA Weather Forecast Office

NWS Regional Weather Roundup
County Warning Area [CWA]: LWX
Regional NWS Weather Office: Baltimore, MD/Washington, DC/Sterling, VA

000
ASUS41 KLWX 182310
RWRLWX

REGIONAL WEATHER ROUNDUP
NATIONAL WEATHER SERVICE BALTIMORE MD/WASHINGTON DC
600 PM EST SAT NOV 18 2017

Note: "FAIR" indicates few or no clouds below 12,000 feet
with no significant weather and/or obstructions to visibility.
 TC=TEMPERATURE CELSIUS

 * =Non NWS site. Station does not report precipitation (e.g. rain,
    snow, etc.), thunder, or fog.

DCZ001-MDZ009-015-VAZ040>042-051-053>054-190000-
WASHINGTON METRO

CITY           SKY/WX    TMP DP  RH WIND       PRES   REMARKS
WASHINGTON NAT CLOUDY    55  43  63 S12       29.59F
DULLES         CLOUDY    57  41  55 SE8       29.56F
ANDREWS AFB    CLOUDY    56  40  55 S15       29.58F
FT BELVOIR     CLOUDY    56  41  57 SE7       29.59F
COLLEGE PARK*  CLOUDY    56  39  53 S6        29.58F
LEESBURG*      CLOUDY    55  45  67 S9        29.55F
MANASSAS*      CLOUDY    59  42  53 S9        29.58F
GAITHERSBURG*  CLOUDY    54  41  61 S13G21    29.56F

$$

MDZ006>007-011-014-190000-
BALTIMORE METRO

CITY           SKY/WX    TMP DP  RH WIND       PRES   REMARKS
BWI AIRPORT    CLOUDY    55  41  59 S6        29.57F
MD SCIENCE CTR   N/A     57  40  52 MISG      29.58F
MARTIN STATE   CLOUDY    54  48  82 SE12      29.61F
FORT MEADE*    CLOUDY    54  41  62 S6        29.60F

$$

MDZ012-015-019>023-190000-
MARYLAND EASTERN SHORE

CITY           SKY/WX    TMP DP  RH WIND       PRES   REMARKS
OCEAN CITY     MOCLDY    57  51  80 SW15G25   29.69F
SALISBURY      MOCLDY    57  48  72 S12       29.67F
CAMBRIDGE*     CLEAR     55  45  67 S12G18    29.65S
EASTON*        PTCLDY    57  41  54 S13G18    29.67F

$$

MDZ017>025-190000-
SOUTHERN MARYLAND

CITY           SKY/WX    TMP DP  RH WIND       PRES   REMARKS
PATUXENT RIVER CLOUDY    58  44  60 S10       29.64F
ST INIGOES     CLOUDY    59  45  59 S12       29.65F
LEONARDTOWN*   CLOUDY    57  41  54 S8        29.65S

$$

MDZ003>005-190000-
NORTH CENTRAL MARYLAND

CITY           SKY/WX    TMP DP  RH WIND       PRES   REMARKS
FREDERICK*     CLEAR     43  43 100 CALM      29.59F FOG
HAGERSTOWN APT CLOUDY    40  39  97 NW7       29.52F FOG
WESTMINSTER*   CLOUDY    48  45  87 S8        29.54F

$$

MDZ501>502-190000-
WESTERN MARYLAND

CITY           SKY/WX    TMP DP  RH WIND       PRES   REMARKS
OAKLAND*       CLOUDY    50  45  81 S12       29.40F
CUMBERLAND*    CLOUDY    39  39 100 SE3       29.53F

$$

VAZ025>031-190000-
SHENANDOAH VALLEY

CITY           SKY/WX    TMP DP  RH WIND       PRES   REMARKS
WINCHESTER*    MOCLDY    39  37  93 CALM      29.50F
FRONT ROYAL*   CLOUDY    45  37  76 SE3       29.49F
LURAY*         CLOUDY    59  41  51 SW10      29.51F
NEW MARKET*    CLOUDY    58  40  50 SW12G22   29.51F
STAUNTON*      CLOUDY    56  43  60 S12       29.57F
WAYNESBORO*    PTCLDY    57  44  60 S9G16     29.58F

$$

WVZ021-048>050-054>055-190000-
EASTERN WEST VIRGINIA PANHANDLE

CITY           SKY/WX    TMP DP  RH WIND       PRES   REMARKS
MARTINSBURG    CLOUDY    40  38  93 CALM      29.50F FOG
PETERSBURG*    PTCLDY    40  34  80 CALM      29.49S

$$

VAZ036>039-050-190000-
CENTRAL FOOTHILLS

CITY           SKY/WX    TMP DP  RH WIND       PRES   REMARKS
CHARLOTTESVILL CLOUDY    62  44  51 S21G28    29.57F
CULPEPER*      CLOUDY    63  41  44 S10G20    29.58S
ORANGE*        CLOUDY    61  43  51 S13G25    29.58F
GORDONSVILLE*  CLOUDY    61  45  54 S18G26    29.57F
WARRENTON*     NOT AVBL

$$

VAZ055>057-190000-
NORTH AND CENTRAL PIEDMONT

CITY           SKY/WX    TMP DP  RH WIND       PRES   REMARKS
FREDERICKSBRG* PTCLDY    62  45  54 S13       29.60S
STAFFORD*      CLOUDY    59  41  52 S7        29.64S

$$

NCZ024-NYZ072-PAZ021-071-VAZ022-071-190000-
OTHER REGIONAL OBSERVATIONS

CITY           SKY/WX    TMP DP  RH WIND       PRES   REMARKS
NEW YORK CITY  LGT RAIN  47  44  90 VRB3      29.65F FOG
PHILADELPHIA   LGT RAIN  51  43  74 S8        29.62F
PITTSBURGH     CLOUDY    51  48  89 SE5       29.29F
ROANOKE        CLOUDY    59  46  62 S10       29.65F
RICHMOND       CLOUDY    61  47  59 S20       29.66F
RALEIGH        CLOUDY    62  50  64 SW14      29.77S

$$

ANZ530>537-190000-
MARINE OBSERVATIONS

STATION/POSITION TIME  TEMP    WIND        PRES
                       AIR SEA DIR/SP/G
                 (UTC) (F)     (DEG/KT/KT) (MB)
THOMAS PT LIGHT  2300   56 54  170/ 20/ 22   N/A

$$

Hourly Weather Roundup from: NOAA-NWS
Script developed by: El Dorado Weather & modified by: SE Lincoln Weather